Time,TemperatureF,DewpointF,PressureIn,WindDirection,WindDirectionDegrees,WindSpeedMPH,WindSpeedGustMPH,Humidity,HourlyPrecipIn,Conditions,Clouds,dailyrainin,SolarRadiationWatts/m^2,SoftwareType,DateUTC
2013-02-17 00:00:00,32.4,22.3,29.81,NNW,345,4.0,12.0,66,0.00,,,0.01,0.0,meteohub,2013-02-17 05:00:00,
2013-02-17 00:01:00,32.4,22.3,29.81,NNW,331,6.0,12.0,66,0.00,,,0.01,0.0,meteohub,2013-02-17 05:01:00,
2013-02-17 00:02:00,32.4,22.3,29.81,NNE,14,1.0,12.0,66,0.00,,,0.01,0.0,meteohub,2013-02-17 05:02:00,
2013-02-17 00:04:00,32.4,21.9,29.81,NNE,17,1.0,12.0,65,0.00,,,0.01,0.0,meteohub,2013-02-17 05:04:00,
2013-02-17 00:09:00,32.2,22.1,29.81,North,5,3.0,12.0,66,0.00,,,0.00,0.0,meteohub,2013-02-17 05:09:00,
2013-02-17 00:14:00,32.2,22.1,29.81,North,0,4.0,12.0,66,0.00,,,0.00,0.0,meteohub,2013-02-17 05:14:00,
2013-02-17 00:19:00,32.0,21.9,29.81,ENE,59,4.0,12.0,66,0.00,,,0.00,0.0,meteohub,2013-02-17 05:19:00,
2013-02-17 00:24:00,31.8,21.7,29.81,North,355,7.0,12.0,66,0.00,,,0.00,0.0,meteohub,2013-02-17 05:24:00,
2013-02-17 00:29:00,31.8,21.7,29.81,North,0,4.0,12.0,66,0.00,,,0.00,0.0,meteohub,2013-02-17 05:29:00,
2013-02-17 00:34:00,31.6,21.6,29.81,North,355,4.0,12.0,66,0.00,,,0.00,0.0,meteohub,2013-02-17 05:34:00,
2013-02-17 00:39:00,31.6,21.6,29.82,NNE,32,6.0,12.0,66,0.00,,,0.00,0.0,meteohub,2013-02-17 05:39:00,
2013-02-17 00:44:00,31.6,21.6,29.82,North,355,3.0,12.0,66,0.00,,,0.00,0.0,meteohub,2013-02-17 05:44:00,
2013-02-17 00:49:00,31.5,21.7,29.82,North,0,4.0,12.0,67,0.00,,,0.00,0.0,meteohub,2013-02-17 05:49:00,
2013-02-17 00:54:00,31.5,21.7,29.82,NNW,334,9.0,13.0,67,0.00,,,0.00,0.0,meteohub,2013-02-17 05:54:00,
2013-02-17 00:59:00,31.5,21.7,29.82,North,355,3.0,13.0,67,0.00,,,0.00,0.0,meteohub,2013-02-17 05:59:00,
2013-02-17 01:04:00,31.3,21.6,29.82,NW,319,4.0,13.0,67,0.00,,,0.00,0.0,meteohub,2013-02-17 06:04:00,
2013-02-17 01:10:00,31.3,21.6,29.82,North,11,3.0,11.0,67,0.00,,,0.00,0.0,meteohub,2013-02-17 06:10:00,
2013-02-17 01:15:00,31.3,21.9,29.82,NNW,331,5.0,11.0,68,0.00,,,0.00,0.0,meteohub,2013-02-17 06:15:00,
2013-02-17 01:20:00,31.1,21.4,29.82,North,350,9.0,14.0,67,0.00,,,0.00,0.0,meteohub,2013-02-17 06:20:00,
2013-02-17 01:25:00,31.1,21.7,29.82,NNW,333,4.0,14.0,68,0.00,,,0.00,0.0,meteohub,2013-02-17 06:25:00,
2013-02-17 01:30:00,30.9,21.6,29.82,North,355,6.0,14.0,68,0.00,,,0.00,0.0,meteohub,2013-02-17 06:30:00,
2013-02-17 01:35:00,30.9,21.6,29.82,NNE,24,2.0,10.0,68,0.00,,,0.00,0.0,meteohub,2013-02-17 06:35:00,
2013-02-17 01:40:00,30.7,21.4,29.82,NW,312,3.0,11.0,68,0.00,,,0.00,0.0,meteohub,2013-02-17 06:40:00,
2013-02-17 01:45:00,30.7,21.4,29.82,NE,36,1.0,11.0,68,0.00,,,0.00,0.0,meteohub,2013-02-17 06:45:00,
2013-02-17 01:50:00,30.7,21.4,29.82,NNE,29,3.0,11.0,68,0.00,,,0.00,0.0,meteohub,2013-02-17 06:50:00,
2013-02-17 01:55:00,30.7,21.4,29.82,North,349,0.0,11.0,68,0.00,,,0.00,0.0,meteohub,2013-02-17 06:55:00,
2013-02-17 02:00:00,30.6,21.6,29.82,North,350,4.0,11.0,69,0.00,,,0.00,0.0,meteohub,2013-02-17 07:00:00,
2013-02-17 02:05:00,30.6,21.6,29.82,North,0,1.0,11.0,69,0.00,,,0.00,0.0,meteohub,2013-02-17 07:05:00,
2013-02-17 02:10:00,30.6,21.6,29.82,North,350,2.0,11.0,69,0.00,,,0.00,0.0,meteohub,2013-02-17 07:10:00,
2013-02-17 02:16:00,30.4,21.0,29.82,West,279,3.0,10.0,68,0.00,,,0.00,0.0,meteohub,2013-02-17 07:16:00,
2013-02-17 02:21:00,30.6,21.2,29.82,NNE,18,3.0,11.0,68,0.00,,,0.00,0.0,meteohub,2013-02-17 07:21:00,
2013-02-17 02:26:00,30.4,21.0,29.82,North,0,2.0,11.0,68,0.00,,,0.00,0.0,meteohub,2013-02-17 07:26:00,
2013-02-17 02:31:00,30.4,20.7,29.82,North,0,4.0,12.0,67,0.00,,,0.00,0.0,meteohub,2013-02-17 07:31:00,
2013-02-17 02:36:00,30.4,20.7,29.82,NNW,348,4.0,12.0,67,0.00,,,0.00,0.0,meteohub,2013-02-17 07:36:00,
2013-02-17 02:41:00,30.4,20.7,29.82,NNW,346,4.0,12.0,67,0.00,,,0.00,0.0,meteohub,2013-02-17 07:41:00,
2013-02-17 02:46:00,30.2,20.8,29.82,NNW,337,5.0,12.0,68,0.00,,,0.00,0.0,meteohub,2013-02-17 07:46:00,
2013-02-17 02:51:00,30.0,21.0,29.83,North,5,1.0,11.0,69,0.00,,,0.00,0.0,meteohub,2013-02-17 07:51:00,
2013-02-17 02:56:00,30.0,21.4,29.82,NNE,13,4.0,11.0,70,0.00,,,0.00,0.0,meteohub,2013-02-17 07:56:00,
2013-02-17 03:01:00,29.8,21.6,29.82,NNE,13,3.0,10.0,71,0.00,,,0.00,0.0,meteohub,2013-02-17 08:01:00,
2013-02-17 03:06:00,29.7,21.4,29.82,NNE,22,4.0,10.0,71,0.00,,,0.00,0.0,meteohub,2013-02-17 08:06:00,
2013-02-17 03:11:00,29.7,21.4,29.82,NW,324,3.0,10.0,71,0.00,,,0.00,0.0,meteohub,2013-02-17 08:11:00,
2013-02-17 03:16:00,29.7,21.0,29.82,North,0,6.0,12.0,70,0.00,,,0.00,0.0,meteohub,2013-02-17 08:16:00,
2013-02-17 03:21:00,29.7,21.4,29.82,NNW,345,2.0,12.0,71,0.00,,,0.00,0.0,meteohub,2013-02-17 08:21:00,
2013-02-17 03:26:00,29.5,21.2,29.82,North,9,2.0,12.0,71,0.00,,,0.00,0.0,meteohub,2013-02-17 08:26:00,
2013-02-17 03:32:00,29.5,21.2,29.82,NNE,26,2.0,11.0,71,0.00,,,0.00,0.0,meteohub,2013-02-17 08:32:00,
2013-02-17 03:37:00,29.5,21.2,29.82,NNW,340,8.0,11.0,71,0.00,,,0.00,0.0,meteohub,2013-02-17 08:37:00,
2013-02-17 03:42:00,29.1,20.5,29.82,NNW,327,3.0,12.0,70,0.00,,,0.00,0.0,meteohub,2013-02-17 08:42:00,
2013-02-17 03:47:00,29.1,20.5,29.82,NNE,14,5.0,12.0,70,0.00,,,0.00,0.0,meteohub,2013-02-17 08:47:00,
2013-02-17 03:52:00,29.1,20.5,29.82,North,0,4.0,10.0,70,0.00,,,0.00,0.0,meteohub,2013-02-17 08:52:00,
2013-02-17 03:57:00,29.1,20.5,29.82,NNW,348,1.0,10.0,70,0.00,,,0.00,0.0,meteohub,2013-02-17 08:57:00,
2013-02-17 04:02:00,28.9,20.5,29.82,WNW,287,6.0,10.0,70,0.00,,,0.00,0.0,meteohub,2013-02-17 09:02:00,
2013-02-17 04:07:00,28.9,20.1,29.82,NNW,344,2.0,10.0,69,0.00,,,0.00,0.0,meteohub,2013-02-17 09:07:00,
2013-02-17 04:12:00,29.1,19.9,29.82,North,5,4.0,10.0,68,0.00,,,0.00,0.0,meteohub,2013-02-17 09:12:00,
2013-02-17 04:17:00,28.9,19.4,29.82,NNW,344,4.0,11.0,67,0.00,,,0.00,0.0,meteohub,2013-02-17 09:17:00,
2013-02-17 04:22:00,29.1,19.6,29.82,NW,317,4.0,11.0,67,0.00,,,0.00,0.0,meteohub,2013-02-17 09:22:00,
2013-02-17 04:27:00,28.9,19.4,29.83,WNW,290,8.0,11.0,67,0.00,,,0.00,0.0,meteohub,2013-02-17 09:27:00,
2013-02-17 04:32:00,28.9,19.4,29.83,NNW,346,1.0,10.0,67,0.00,,,0.00,0.0,meteohub,2013-02-17 09:32:00,
2013-02-17 04:37:00,28.9,19.4,29.83,NNE,12,2.0,10.0,67,0.00,,,0.00,0.0,meteohub,2013-02-17 09:37:00,
2013-02-17 04:42:00,28.8,19.6,29.84,NNW,341,3.0,13.0,68,0.00,,,0.00,0.0,meteohub,2013-02-17 09:42:00,
2013-02-17 04:47:00,28.8,19.6,29.84,North,355,5.0,13.0,68,0.00,,,0.00,0.0,meteohub,2013-02-17 09:47:00,
2013-02-17 04:52:00,28.8,19.6,29.84,NNW,344,6.0,13.0,68,0.00,,,0.00,0.0,meteohub,2013-02-17 09:52:00,
2013-02-17 04:57:00,28.6,19.4,29.84,North,355,1.0,11.0,68,0.00,,,0.00,0.0,meteohub,2013-02-17 09:57:00,
2013-02-17 05:02:00,28.6,19.4,29.84,NNE,25,0.0,11.0,68,0.00,,,0.00,0.0,meteohub,2013-02-17 10:02:00,
2013-02-17 05:07:00,28.6,19.8,29.84,NNW,348,1.0,11.0,69,0.00,,,0.00,0.0,meteohub,2013-02-17 10:07:00,
2013-02-17 05:12:00,28.4,19.6,29.84,North,11,4.0,11.0,69,0.00,,,0.00,0.0,meteohub,2013-02-17 10:12:00,
2013-02-17 05:17:00,28.2,19.4,29.84,NNW,342,2.0,10.0,69,0.00,,,0.00,0.0,meteohub,2013-02-17 10:17:00,
2013-02-17 05:22:00,28.2,19.4,29.84,North,0,1.0,10.0,69,0.00,,,0.00,0.0,meteohub,2013-02-17 10:22:00,
2013-02-17 05:27:00,28.0,19.2,29.85,North,5,0.0,10.0,69,0.00,,,0.00,0.0,meteohub,2013-02-17 10:27:00,
2013-02-17 05:32:00,28.0,19.2,29.85,NW,317,3.0,7.0,69,0.00,,,0.00,0.0,meteohub,2013-02-17 10:32:00,
2013-02-17 05:37:00,28.0,19.2,29.85,NNE,15,3.0,7.0,69,0.00,,,0.00,0.0,meteohub,2013-02-17 10:37:00,
2013-02-17 05:42:00,28.0,19.6,29.85,North,11,0.0,7.0,70,0.00,,,0.00,0.0,meteohub,2013-02-17 10:42:00,
2013-02-17 05:47:00,27.9,19.4,29.85,NNW,327,3.0,10.0,70,0.00,,,0.00,0.0,meteohub,2013-02-17 10:47:00,
2013-02-17 05:52:00,27.9,19.4,29.85,North,349,4.0,10.0,70,0.00,,,0.00,0.0,meteohub,2013-02-17 10:52:00,
2013-02-17 05:57:00,27.9,19.4,29.85,NNW,340,1.0,10.0,70,0.00,,,0.00,0.0,meteohub,2013-02-17 10:57:00,
2013-02-17 06:02:00,27.9,19.4,29.85,NNE,22,0.0,10.0,70,0.00,,,0.00,0.0,meteohub,2013-02-17 11:02:00,
2013-02-17 06:07:00,27.7,18.9,29.85,NNW,331,5.0,9.0,69,0.00,,,0.00,0.0,meteohub,2013-02-17 11:07:00,
2013-02-17 06:12:00,27.9,19.0,29.85,WNW,297,6.0,9.0,69,0.00,,,0.00,0.0,meteohub,2013-02-17 11:12:00,
2013-02-17 06:17:00,27.7,18.9,29.85,North,349,3.0,9.0,69,0.00,,,0.00,0.0,meteohub,2013-02-17 11:17:00,
2013-02-17 06:22:00,27.7,19.2,29.85,NNW,333,0.0,9.0,70,0.00,,,0.00,0.0,meteohub,2013-02-17 11:22:00,
2013-02-17 06:27:00,27.5,19.4,29.86,North,5,0.0,8.0,71,0.00,,,0.00,0.0,meteohub,2013-02-17 11:27:00,
2013-02-17 06:32:00,27.3,19.2,29.85,NNE,14,0.0,8.0,71,0.00,,,0.00,0.0,meteohub,2013-02-17 11:32:00,
2013-02-17 06:37:00,27.3,19.2,29.86,NNW,348,2.0,8.0,71,0.00,,,0.00,0.0,meteohub,2013-02-17 11:37:00,
2013-02-17 06:42:00,27.3,19.2,29.86,NNW,341,4.0,8.0,71,0.00,,,0.00,0.0,meteohub,2013-02-17 11:42:00,
2013-02-17 06:47:00,27.3,19.2,29.86,North,355,3.0,8.0,71,0.00,,,0.00,0.0,meteohub,2013-02-17 11:47:00,
2013-02-17 06:52:00,27.3,19.2,29.86,North,0,3.0,8.0,71,0.00,,,0.00,0.0,meteohub,2013-02-17 11:52:00,
2013-02-17 06:57:00,27.3,19.6,29.86,NE,36,6.0,10.0,72,0.00,,,0.00,0.0,meteohub,2013-02-17 11:57:00,
2013-02-17 07:02:00,27.3,19.2,29.86,NNW,336,3.0,10.0,71,0.00,,,0.00,5.0,meteohub,2013-02-17 12:02:00,
2013-02-17 07:07:00,27.3,19.2,29.87,NNW,330,3.0,10.0,71,0.00,,,0.00,9.0,meteohub,2013-02-17 12:07:00,
2013-02-17 07:12:00,27.3,19.2,29.87,NNW,343,2.0,10.0,71,0.00,,,0.00,12.0,meteohub,2013-02-17 12:12:00,
2013-02-17 07:17:00,27.3,19.6,29.87,NW,321,2.0,10.0,72,0.00,,,0.00,14.0,meteohub,2013-02-17 12:17:00,
2013-02-17 07:22:00,27.3,19.2,29.88,North,9,7.0,10.0,71,0.00,,,0.00,19.0,meteohub,2013-02-17 12:22:00,
2013-02-17 07:27:00,27.3,19.2,29.88,NNE,13,1.0,10.0,71,0.00,,,0.00,21.0,meteohub,2013-02-17 12:27:00,
2013-02-17 07:32:00,27.3,19.6,29.88,North,0,3.0,10.0,72,0.00,,,0.00,26.0,meteohub,2013-02-17 12:32:00,
2013-02-17 07:37:00,27.3,19.6,29.88,North,355,3.0,8.0,72,0.00,,,0.00,46.0,meteohub,2013-02-17 12:37:00,
2013-02-17 07:42:00,27.5,19.6,29.88,NNE,26,5.0,8.0,72,0.00,,,0.00,42.0,meteohub,2013-02-17 12:42:00,
2013-02-17 07:47:00,27.7,19.8,29.88,North,9,2.0,8.0,72,0.00,,,0.00,49.0,meteohub,2013-02-17 12:47:00,
2013-02-17 07:52:00,27.7,19.6,29.89,NW,323,3.0,10.0,71,0.00,,,0.00,54.0,meteohub,2013-02-17 12:52:00,
2013-02-17 07:57:00,27.9,19.8,29.89,North,0,1.0,10.0,71,0.00,,,0.00,69.0,meteohub,2013-02-17 12:57:00,
2013-02-17 08:02:00,28.0,19.9,29.89,North,350,2.0,10.0,71,0.00,,,0.00,104.0,meteohub,2013-02-17 13:02:00,
2013-02-17 08:08:00,28.0,19.9,29.89,North,11,6.0,10.0,71,0.00,,,0.00,125.0,meteohub,2013-02-17 13:08:00,
2013-02-17 08:13:00,28.2,19.8,29.89,NNE,32,0.0,10.0,70,0.00,,,0.00,156.0,meteohub,2013-02-17 13:13:00,
2013-02-17 08:18:00,28.6,19.8,29.90,NW,315,6.0,10.0,69,0.00,,,0.00,88.0,meteohub,2013-02-17 13:18:00,
2013-02-17 08:23:00,28.6,19.8,29.90,NNW,338,3.0,9.0,69,0.00,,,0.00,60.0,meteohub,2013-02-17 13:23:00,
2013-02-17 08:28:00,28.6,19.8,29.90,NNW,346,5.0,9.0,69,0.00,,,0.00,56.0,meteohub,2013-02-17 13:28:00,
2013-02-17 08:33:00,28.8,19.9,29.90,NNE,30,9.0,11.0,69,0.00,,,0.00,234.0,meteohub,2013-02-17 13:33:00,
2013-02-17 08:38:00,28.8,19.2,29.90,North,0,10.0,11.0,67,0.00,,,0.00,186.0,meteohub,2013-02-17 13:38:00,
2013-02-17 08:43:00,28.8,18.9,29.90,North,355,6.0,11.0,66,0.00,,,0.00,257.0,meteohub,2013-02-17 13:43:00,
2013-02-17 08:48:00,28.9,19.4,29.90,NNW,342,3.0,17.0,67,0.00,,,0.00,304.0,meteohub,2013-02-17 13:48:00,
2013-02-17 08:53:00,29.3,19.0,29.91,NNW,337,1.0,17.0,65,0.00,,,0.00,274.0,meteohub,2013-02-17 13:53:00,
2013-02-17 08:58:00,29.5,19.6,29.90,NNW,341,2.0,17.0,66,0.00,,,0.00,220.0,meteohub,2013-02-17 13:58:00,
2013-02-17 09:03:00,29.5,19.2,29.90,NW,315,6.0,17.0,65,0.00,,,0.00,243.0,meteohub,2013-02-17 14:03:00,
2013-02-17 09:09:00,29.7,19.8,29.91,North,355,8.0,17.0,66,0.00,,,0.00,281.0,meteohub,2013-02-17 14:09:00,
2013-02-17 09:14:00,29.8,19.2,29.91,NNE,22,6.0,15.0,64,0.00,,,0.00,381.0,meteohub,2013-02-17 14:14:00,
2013-02-17 09:19:00,29.8,18.5,29.91,NE,34,5.0,15.0,62,0.00,,,0.00,387.0,meteohub,2013-02-17 14:19:00,
2013-02-17 09:24:00,29.8,18.5,29.91,NNW,335,7.0,15.0,62,0.00,,,0.00,220.0,meteohub,2013-02-17 14:24:00,
2013-02-17 09:29:00,29.7,18.7,29.91,NNE,26,10.0,16.0,63,0.00,,,0.00,397.0,meteohub,2013-02-17 14:29:00,
2013-02-17 09:34:00,29.7,18.7,29.91,North,5,10.0,16.0,63,0.00,,,0.00,285.0,meteohub,2013-02-17 14:34:00,
2013-02-17 09:39:00,29.7,18.7,29.92,NNW,328,5.0,16.0,63,0.00,,,0.00,408.0,meteohub,2013-02-17 14:39:00,
2013-02-17 09:44:00,29.8,18.0,29.92,North,351,5.0,16.0,61,0.00,,,0.00,114.0,meteohub,2013-02-17 14:44:00,
2013-02-17 09:49:00,29.7,17.8,29.92,WNW,301,15.0,16.0,61,0.00,,,0.00,563.0,meteohub,2013-02-17 14:49:00,
2013-02-17 09:54:00,29.8,18.0,29.92,NNW,331,6.0,17.0,61,0.00,,,0.00,174.0,meteohub,2013-02-17 14:54:00,
2013-02-17 09:59:00,30.0,18.1,29.92,North,5,2.0,17.0,61,0.00,,,0.00,183.0,meteohub,2013-02-17 14:59:00,
2013-02-17 10:04:00,30.2,17.6,29.93,NE,52,3.0,17.0,59,0.00,,,0.00,570.0,meteohub,2013-02-17 15:04:00,
2013-02-17 10:09:00,30.4,17.1,29.93,NW,314,6.0,17.0,57,0.00,,,0.00,568.0,meteohub,2013-02-17 15:09:00,
2013-02-17 10:14:00,30.4,17.1,29.93,North,351,9.0,17.0,57,0.00,,,0.00,585.0,meteohub,2013-02-17 15:14:00,
2013-02-17 10:19:00,30.6,17.1,29.93,NNE,32,5.0,18.0,57,0.00,,,0.00,689.0,meteohub,2013-02-17 15:19:00,
2013-02-17 10:25:00,30.6,17.1,29.93,NNW,334,7.0,18.0,57,0.00,,,0.00,167.0,meteohub,2013-02-17 15:25:00,
2013-02-17 10:30:00,30.4,17.4,29.93,NNW,333,7.0,18.0,58,0.00,,,0.00,134.0,meteohub,2013-02-17 15:30:00,
2013-02-17 10:35:00,30.4,17.1,29.94,North,355,6.0,15.0,57,0.00,,,0.00,153.0,meteohub,2013-02-17 15:35:00,
2013-02-17 10:40:00,29.8,16.0,29.94,NW,315,5.0,15.0,56,0.00,,,0.00,211.0,meteohub,2013-02-17 15:40:00,
2013-02-17 10:45:00,29.8,16.0,29.94,North,349,1.0,20.0,56,0.00,,,0.00,214.0,meteohub,2013-02-17 15:45:00,
2013-02-17 10:50:00,30.0,16.7,29.94,NNW,331,5.0,20.0,57,0.00,,,0.00,167.0,meteohub,2013-02-17 15:50:00,
2013-02-17 10:55:00,30.2,16.0,29.94,North,0,9.0,20.0,55,0.00,,,0.00,348.0,meteohub,2013-02-17 15:55:00,
2013-02-17 11:00:00,30.6,16.3,29.94,NNW,331,4.0,15.0,55,0.00,,,0.00,130.0,meteohub,2013-02-17 16:00:00,
2013-02-17 11:05:00,30.4,16.2,29.94,NW,309,9.0,15.0,55,0.00,,,0.00,193.0,meteohub,2013-02-17 16:05:00,
2013-02-17 11:10:00,30.6,16.0,29.94,North,9,10.0,15.0,54,0.00,,,0.00,213.0,meteohub,2013-02-17 16:10:00,
2013-02-17 11:15:00,30.7,16.5,29.94,WNW,299,14.0,15.0,55,0.00,,,0.00,250.0,meteohub,2013-02-17 16:15:00,
2013-02-17 11:20:00,30.6,17.1,29.94,North,355,4.0,15.0,57,0.00,,,0.00,148.0,meteohub,2013-02-17 16:20:00,
2013-02-17 11:25:00,30.2,17.6,29.94,NNW,329,5.0,15.0,59,0.00,,,0.00,264.0,meteohub,2013-02-17 16:25:00,
2013-02-17 11:31:00,30.0,17.8,29.95,NNW,334,6.0,15.0,60,0.00,,,0.00,192.0,meteohub,2013-02-17 16:31:00,
2013-02-17 11:36:00,30.0,18.1,29.95,NW,307,10.0,15.0,61,0.00,,,0.00,362.0,meteohub,2013-02-17 16:36:00,
2013-02-17 11:41:00,30.0,18.1,29.95,NW,314,5.0,15.0,61,0.00,,,0.00,476.0,meteohub,2013-02-17 16:41:00,
2013-02-17 11:46:00,30.0,17.4,29.95,NNW,345,8.0,15.0,59,0.00,,,0.00,315.0,meteohub,2013-02-17 16:46:00,
2013-02-17 11:51:00,30.4,17.8,29.95,NE,37,7.0,17.0,59,0.00,,,0.00,722.0,meteohub,2013-02-17 16:51:00,
2013-02-17 11:56:00,30.7,17.8,29.95,North,355,2.0,17.0,58,0.00,,,0.00,791.0,meteohub,2013-02-17 16:56:00,
2013-02-17 12:01:00,31.5,18.3,29.95,WNW,303,7.0,17.0,58,0.00,,,0.00,780.0,meteohub,2013-02-17 17:01:00,
2013-02-17 12:06:00,31.6,17.2,29.95,WNW,292,4.0,17.0,55,0.00,,,0.00,274.0,meteohub,2013-02-17 17:06:00,
2013-02-17 12:11:00,31.3,16.2,29.94,NNW,347,5.0,17.0,53,0.00,,,0.00,260.0,meteohub,2013-02-17 17:11:00,
2013-02-17 12:16:00,31.3,16.5,29.94,NNE,24,5.0,17.0,54,0.00,,,0.00,334.0,meteohub,2013-02-17 17:16:00,
2013-02-17 12:21:00,31.3,16.2,29.94,North,0,11.0,17.0,53,0.00,,,0.00,334.0,meteohub,2013-02-17 17:21:00,
2013-02-17 12:27:00,31.1,16.0,29.94,NNW,345,6.0,17.0,53,0.00,,,0.00,241.0,meteohub,2013-02-17 17:27:00,
2013-02-17 12:32:00,31.3,16.5,29.95,NW,317,10.0,18.0,54,0.00,,,0.00,772.0,meteohub,2013-02-17 17:32:00,
2013-02-17 12:37:00,31.1,16.3,29.95,North,0,3.0,18.0,54,0.00,,,0.00,181.0,meteohub,2013-02-17 17:37:00,
2013-02-17 12:42:00,30.9,16.7,29.95,NW,318,4.0,18.0,55,0.00,,,0.00,782.0,meteohub,2013-02-17 17:42:00,
2013-02-17 12:47:00,31.1,16.3,29.94,North,355,2.0,18.0,54,0.00,,,0.00,798.0,meteohub,2013-02-17 17:47:00,
2013-02-17 12:52:00,32.0,16.9,29.94,NNE,30,1.0,19.0,53,0.00,,,0.00,220.0,meteohub,2013-02-17 17:52:00,
2013-02-17 12:57:00,31.6,16.0,29.94,North,355,9.0,19.0,52,0.00,,,0.00,225.0,meteohub,2013-02-17 17:57:00,
2013-02-17 13:02:00,31.6,16.0,29.95,NNW,330,7.0,17.0,52,0.00,,,0.00,176.0,meteohub,2013-02-17 18:02:00,
2013-02-17 13:07:00,31.3,14.7,29.94,NE,41,6.0,17.0,50,0.00,,,0.00,230.0,meteohub,2013-02-17 18:07:00,
2013-02-17 13:12:00,30.7,14.7,29.94,WNW,298,6.0,17.0,51,0.00,,,0.00,199.0,meteohub,2013-02-17 18:12:00,
2013-02-17 13:17:00,30.7,15.3,29.94,NW,307,4.0,16.0,52,0.00,,,0.00,250.0,meteohub,2013-02-17 18:17:00,
2013-02-17 13:22:00,31.1,15.4,29.94,NNW,333,8.0,16.0,52,0.00,,,0.00,780.0,meteohub,2013-02-17 18:22:00,
2013-02-17 13:27:00,31.6,15.6,29.94,North,0,5.0,16.0,51,0.00,,,0.00,735.0,meteohub,2013-02-17 18:27:00,
2013-02-17 13:32:00,31.8,15.8,29.94,North,351,4.0,18.0,51,0.00,,,0.00,710.0,meteohub,2013-02-17 18:32:00,
2013-02-17 13:37:00,32.2,15.6,29.94,North,355,10.0,18.0,50,0.00,,,0.00,698.0,meteohub,2013-02-17 18:37:00,
2013-02-17 13:42:00,32.2,15.6,29.94,NW,325,6.0,18.0,50,0.00,,,0.00,728.0,meteohub,2013-02-17 18:42:00,
2013-02-17 13:47:00,32.4,15.8,29.94,NNE,29,8.0,18.0,50,0.00,,,0.00,659.0,meteohub,2013-02-17 18:47:00,
2013-02-17 13:52:00,32.4,14.9,29.94,WNW,295,13.0,23.0,48,0.00,,,0.00,149.0,meteohub,2013-02-17 18:52:00,
2013-02-17 13:57:00,31.6,14.7,29.94,West,278,6.0,23.0,49,0.00,,,0.00,374.0,meteohub,2013-02-17 18:57:00,
2013-02-17 14:02:00,31.6,14.7,29.94,NNW,333,11.0,22.0,49,0.00,,,0.00,557.0,meteohub,2013-02-17 19:02:00,
2013-02-17 14:07:00,31.5,14.0,29.94,NNW,340,17.0,22.0,48,0.00,,,0.00,715.0,meteohub,2013-02-17 19:07:00,
2013-02-17 14:12:00,31.5,14.9,29.95,NNW,341,20.0,22.0,50,0.00,,,0.00,253.0,meteohub,2013-02-17 19:12:00,
2013-02-17 14:17:00,31.3,14.4,29.95,North,0,8.0,23.0,49,0.00,,,0.00,179.0,meteohub,2013-02-17 19:17:00,
2013-02-17 14:22:00,31.5,14.9,29.96,NNW,334,7.0,23.0,50,0.00,,,0.00,647.0,meteohub,2013-02-17 19:22:00,
2013-02-17 14:27:00,31.6,15.1,29.95,WNW,299,8.0,23.0,50,0.00,,,0.00,181.0,meteohub,2013-02-17 19:27:00,
2013-02-17 14:32:00,31.5,14.9,29.96,North,5,8.0,20.0,50,0.00,,,0.00,621.0,meteohub,2013-02-17 19:32:00,
2013-02-17 14:37:00,31.8,15.3,29.95,WNW,288,11.0,20.0,50,0.00,,,0.00,519.0,meteohub,2013-02-17 19:37:00,
2013-02-17 14:42:00,32.0,16.0,29.96,NNW,327,3.0,16.0,51,0.00,,,0.00,316.0,meteohub,2013-02-17 19:42:00,
2013-02-17 14:47:00,32.2,16.2,29.95,NNW,344,22.0,22.0,51,0.00,,,0.00,279.0,meteohub,2013-02-17 19:47:00,
2013-02-17 14:53:00,32.2,15.1,29.96,NW,322,5.0,22.0,49,0.00,,,0.00,227.0,meteohub,2013-02-17 19:53:00,
2013-02-17 14:58:00,32.2,14.7,29.96,NNE,14,8.0,22.0,48,0.00,,,0.00,118.0,meteohub,2013-02-17 19:58:00,
2013-02-17 15:03:00,31.5,14.5,29.96,North,355,13.0,22.0,49,0.00,,,0.00,183.0,meteohub,2013-02-17 20:03:00,
2013-02-17 15:08:00,31.5,14.5,29.96,WNW,285,7.0,22.0,49,0.00,,,0.00,97.0,meteohub,2013-02-17 20:08:00,
2013-02-17 15:13:00,31.1,14.5,29.97,NW,323,14.0,23.0,50,0.00,,,0.00,172.0,meteohub,2013-02-17 20:13:00,
2013-02-17 15:18:00,31.3,14.7,29.96,NNW,345,6.0,23.0,50,0.00,,,0.00,188.0,meteohub,2013-02-17 20:18:00,
2013-02-17 15:23:00,31.5,14.9,29.97,North,5,6.0,19.0,50,0.00,,,0.00,104.0,meteohub,2013-02-17 20:23:00,
2013-02-17 15:28:00,31.5,14.0,29.97,NNW,344,10.0,19.0,48,0.00,,,0.00,362.0,meteohub,2013-02-17 20:28:00,
2013-02-17 15:33:00,30.7,13.3,29.97,North,9,4.0,16.0,48,0.00,,,0.00,81.0,meteohub,2013-02-17 20:33:00,
2013-02-17 15:38:00,30.4,14.0,29.97,North,5,7.0,16.0,50,0.00,,,0.00,81.0,meteohub,2013-02-17 20:38:00,
2013-02-17 15:43:00,30.4,14.4,29.98,North,355,7.0,16.0,51,0.00,,,0.00,109.0,meteohub,2013-02-17 20:43:00,
2013-02-17 15:48:00,30.6,14.2,29.98,NNE,22,8.0,19.0,50,0.00,,,0.00,104.0,meteohub,2013-02-17 20:48:00,
2013-02-17 15:53:00,30.7,13.8,29.99,NNE,19,13.0,19.0,49,0.00,,,0.00,251.0,meteohub,2013-02-17 20:53:00,
2013-02-17 15:59:00,30.9,13.1,29.99,North,5,5.0,19.0,47,0.00,,,0.00,279.0,meteohub,2013-02-17 20:59:00,
2013-02-17 16:04:00,31.5,14.5,29.99,North,0,4.0,24.0,49,0.00,,,0.00,255.0,meteohub,2013-02-17 21:04:00,
2013-02-17 16:09:00,31.6,14.2,29.99,NW,304,6.0,24.0,48,0.00,,,0.00,197.0,meteohub,2013-02-17 21:09:00,
2013-02-17 16:14:00,31.5,14.0,29.99,NW,325,7.0,24.0,48,0.00,,,0.00,130.0,meteohub,2013-02-17 21:14:00,
2013-02-17 16:19:00,31.5,13.6,29.99,NNE,13,8.0,24.0,47,0.00,,,0.00,107.0,meteohub,2013-02-17 21:19:00,
2013-02-17 16:24:00,30.7,12.9,29.99,NNW,332,13.0,24.0,47,0.00,,,0.00,77.0,meteohub,2013-02-17 21:24:00,
2013-02-17 16:29:00,30.6,13.3,29.99,NW,314,5.0,22.0,48,0.00,,,0.00,67.0,meteohub,2013-02-17 21:29:00,
2013-02-17 16:34:00,30.6,13.3,29.99,NW,313,11.0,22.0,48,0.00,,,0.00,58.0,meteohub,2013-02-17 21:34:00,
2013-02-17 16:39:00,30.4,13.1,30.00,North,5,9.0,22.0,48,0.00,,,0.00,86.0,meteohub,2013-02-17 21:39:00,
2013-02-17 16:44:00,30.4,13.1,30.00,NNE,30,5.0,18.0,48,0.00,,,0.00,69.0,meteohub,2013-02-17 21:44:00,
2013-02-17 16:49:00,30.6,12.7,30.00,NW,304,12.0,18.0,47,0.00,,,0.00,77.0,meteohub,2013-02-17 21:49:00,
2013-02-17 16:54:00,30.2,12.4,30.01,WNW,298,15.0,18.0,47,0.00,,,0.00,42.0,meteohub,2013-02-17 21:54:00,
2013-02-17 17:00:00,30.0,12.7,30.01,NW,311,11.0,21.0,48,0.00,,,0.00,51.0,meteohub,2013-02-17 22:00:00,
2013-02-17 17:05:00,29.8,12.0,30.02,NW,317,12.0,21.0,47,0.00,,,0.00,49.0,meteohub,2013-02-17 22:05:00,
2013-02-17 17:10:00,29.7,12.4,30.02,NW,321,8.0,18.0,48,0.00,,,0.00,54.0,meteohub,2013-02-17 22:10:00,
2013-02-17 17:15:00,29.7,12.9,30.03,North,0,1.0,18.0,49,0.00,,,0.00,35.0,meteohub,2013-02-17 22:15:00,
2013-02-17 17:20:00,29.7,12.4,30.03,NW,309,7.0,20.0,48,0.00,,,0.00,39.0,meteohub,2013-02-17 22:20:00,
2013-02-17 17:25:00,29.7,11.8,30.03,NW,308,8.0,20.0,47,0.00,,,0.00,42.0,meteohub,2013-02-17 22:25:00,
2013-02-17 17:30:00,29.5,12.2,30.04,North,5,2.0,20.0,48,0.00,,,0.00,18.0,meteohub,2013-02-17 22:30:00,
2013-02-17 17:35:00,29.3,12.0,30.04,NNW,334,10.0,19.0,48,0.00,,,0.00,12.0,meteohub,2013-02-17 22:35:00,
2013-02-17 17:40:00,29.1,11.8,30.04,North,0,17.0,19.0,48,0.00,,,0.00,18.0,meteohub,2013-02-17 22:40:00,
2013-02-17 17:45:00,28.9,12.2,30.04,NW,323,7.0,19.0,49,0.00,,,0.00,11.0,meteohub,2013-02-17 22:45:00,
2013-02-17 17:51:00,28.9,12.2,30.04,NNW,340,4.0,17.0,49,0.00,,,0.00,0.0,meteohub,2013-02-17 22:51:00,
2013-02-17 17:56:00,28.8,12.0,30.04,NW,323,6.0,17.0,49,0.00,,,0.00,0.0,meteohub,2013-02-17 22:56:00,
2013-02-17 18:01:00,28.8,12.0,30.05,NNW,332,4.0,17.0,49,0.00,,,0.00,0.0,meteohub,2013-02-17 23:01:00,
2013-02-17 18:06:00,28.6,12.4,30.05,NNW,329,13.0,17.0,50,0.00,,,0.00,0.0,meteohub,2013-02-17 23:06:00,
2013-02-17 18:11:00,28.6,12.4,30.05,NNW,338,6.0,17.0,50,0.00,,,0.00,0.0,meteohub,2013-02-17 23:11:00,
2013-02-17 18:16:00,28.4,12.2,30.06,NNW,342,8.0,17.0,50,0.00,,,0.00,0.0,meteohub,2013-02-17 23:16:00,
2013-02-17 18:21:00,28.4,12.6,30.05,West,259,7.0,17.0,51,0.00,,,0.00,0.0,meteohub,2013-02-17 23:21:00,
2013-02-17 18:26:00,28.2,12.0,30.06,NNW,340,4.0,17.0,50,0.00,,,0.00,0.0,meteohub,2013-02-17 23:26:00,
2013-02-17 18:31:00,28.2,12.4,30.06,NW,319,7.0,15.0,51,0.00,,,0.00,0.0,meteohub,2013-02-17 23:31:00,
2013-02-17 18:37:00,28.2,12.4,30.06,NNW,334,9.0,15.0,51,0.00,,,0.00,0.0,meteohub,2013-02-17 23:37:00,
2013-02-17 18:42:00,28.2,12.0,30.06,North,9,4.0,15.0,50,0.00,,,0.00,0.0,meteohub,2013-02-17 23:42:00,
2013-02-17 18:47:00,28.0,12.2,30.06,West,269,6.0,15.0,51,0.00,,,0.00,0.0,meteohub,2013-02-17 23:47:00,
2013-02-17 18:52:00,28.0,12.2,30.07,North,5,8.0,17.0,51,0.00,,,0.00,0.0,meteohub,2013-02-17 23:52:00,
2013-02-17 18:57:00,28.0,11.8,30.07,North,355,12.0,17.0,50,0.00,,,0.00,0.0,meteohub,2013-02-17 23:57:00,
2013-02-17 19:02:00,28.0,12.2,30.07,North,0,8.0,16.0,51,0.00,,,0.00,0.0,meteohub,2013-02-18 00:02:00,
2013-02-17 19:07:00,28.0,11.8,30.07,North,0,5.0,16.0,50,0.00,,,0.00,0.0,meteohub,2013-02-18 00:07:00,
2013-02-17 19:12:00,28.0,11.8,30.08,NE,55,5.0,16.0,50,0.00,,,0.00,0.0,meteohub,2013-02-18 00:12:00,
2013-02-17 19:17:00,28.0,11.8,30.08,NNE,22,5.0,16.0,50,0.00,,,0.00,0.0,meteohub,2013-02-18 00:17:00,
2013-02-17 19:22:00,28.0,12.2,30.08,NW,313,8.0,16.0,51,0.00,,,0.00,0.0,meteohub,2013-02-18 00:22:00,
2013-02-17 19:27:00,28.0,12.2,30.08,NW,309,5.0,16.0,51,0.00,,,0.00,0.0,meteohub,2013-02-18 00:27:00,
2013-02-17 19:32:00,28.0,12.7,30.09,NW,316,6.0,17.0,52,0.00,,,0.00,0.0,meteohub,2013-02-18 00:32:00,
2013-02-17 19:37:00,28.0,12.7,30.09,North,355,5.0,17.0,52,0.00,,,0.00,0.0,meteohub,2013-02-18 00:37:00,
2013-02-17 19:42:00,28.0,12.7,30.09,North,355,12.0,13.0,52,0.00,,,0.00,0.0,meteohub,2013-02-18 00:42:00,
2013-02-17 19:47:00,27.9,12.9,30.09,NW,311,11.0,13.0,53,0.00,,,0.00,0.0,meteohub,2013-02-18 00:47:00,
2013-02-17 19:52:00,27.9,12.9,30.10,North,0,3.0,14.0,53,0.00,,,0.00,0.0,meteohub,2013-02-18 00:52:00,
2013-02-17 19:58:00,27.9,12.9,30.10,NNW,341,5.0,14.0,53,0.00,,,0.00,0.0,meteohub,2013-02-18 00:58:00,
2013-02-17 20:03:00,27.9,13.5,30.10,NW,326,4.0,14.0,54,0.00,,,0.00,0.0,meteohub,2013-02-18 01:03:00,
2013-02-17 20:08:00,27.7,13.3,30.10,NW,320,7.0,14.0,54,0.00,,,0.00,0.0,meteohub,2013-02-18 01:08:00,
2013-02-17 20:13:00,27.7,13.3,30.10,West,279,3.0,12.0,54,0.00,,,0.00,0.0,meteohub,2013-02-18 01:13:00,
2013-02-17 20:18:00,27.7,13.6,30.10,NW,322,5.0,12.0,55,0.00,,,0.00,0.0,meteohub,2013-02-18 01:18:00,
2013-02-17 20:23:00,27.5,13.8,30.10,North,350,10.0,14.0,56,0.00,,,0.00,0.0,meteohub,2013-02-18 01:23:00,
2013-02-17 20:28:00,27.5,13.8,30.11,WSW,255,10.0,14.0,56,0.00,,,0.00,0.0,meteohub,2013-02-18 01:28:00,
2013-02-17 20:33:00,27.5,13.8,30.11,North,355,0.0,18.0,56,0.00,,,0.00,0.0,meteohub,2013-02-18 01:33:00,
2013-02-17 20:38:00,27.3,14.2,30.12,North,5,5.0,18.0,57,0.00,,,0.00,0.0,meteohub,2013-02-18 01:38:00,
2013-02-17 20:43:00,27.3,14.2,30.12,NW,308,6.0,18.0,57,0.00,,,0.00,0.0,meteohub,2013-02-18 01:43:00,
2013-02-17 20:49:00,27.1,14.0,30.12,North,5,3.0,22.0,57,0.00,,,0.00,0.0,meteohub,2013-02-18 01:49:00,
2013-02-17 20:54:00,27.1,13.5,30.13,North,0,5.0,22.0,56,0.00,,,0.00,0.0,meteohub,2013-02-18 01:54:00,
2013-02-17 20:59:00,27.1,13.5,30.13,NW,318,8.0,22.0,56,0.00,,,0.00,0.0,meteohub,2013-02-18 01:59:00,
2013-02-17 21:04:00,27.1,13.5,30.13,North,355,13.0,22.0,56,0.00,,,0.00,0.0,meteohub,2013-02-18 02:04:00,
2013-02-17 21:09:00,27.0,13.3,30.14,North,351,2.0,22.0,56,0.00,,,0.00,0.0,meteohub,2013-02-18 02:09:00,
2013-02-17 21:14:00,27.0,13.8,30.14,North,355,3.0,18.0,57,0.00,,,0.00,0.0,meteohub,2013-02-18 02:14:00,
2013-02-17 21:19:00,27.0,13.8,30.14,NNW,331,6.0,18.0,57,0.00,,,0.00,0.0,meteohub,2013-02-18 02:19:00,
2013-02-17 21:24:00,27.0,13.8,30.14,NNW,344,3.0,18.0,57,0.00,,,0.00,0.0,meteohub,2013-02-18 02:24:00,
2013-02-17 21:29:00,26.8,13.6,30.14,North,349,6.0,16.0,57,0.00,,,0.00,0.0,meteohub,2013-02-18 02:29:00,
2013-02-17 21:35:00,26.8,13.6,30.15,North,355,11.0,16.0,57,0.00,,,0.00,0.0,meteohub,2013-02-18 02:35:00,
2013-02-17 21:40:00,26.8,13.6,30.15,NNE,22,1.0,17.0,57,0.00,,,0.00,0.0,meteohub,2013-02-18 02:40:00,
2013-02-17 21:45:00,26.6,13.5,30.15,NNW,332,3.0,17.0,57,0.00,,,0.00,0.0,meteohub,2013-02-18 02:45:00,
2013-02-17 21:50:00,26.6,13.8,30.15,NNE,24,6.0,17.0,58,0.00,,,0.00,0.0,meteohub,2013-02-18 02:50:00,
2013-02-17 21:55:00,26.6,13.8,30.16,NNE,18,6.0,21.0,58,0.00,,,0.00,0.0,meteohub,2013-02-18 02:55:00,
2013-02-17 22:00:00,26.4,13.6,30.16,NNE,13,2.0,21.0,58,0.00,,,0.00,0.0,meteohub,2013-02-18 03:00:00,
2013-02-17 22:05:00,26.4,13.6,30.16,WNW,289,4.0,21.0,58,0.00,,,0.00,0.0,meteohub,2013-02-18 03:05:00,
2013-02-17 22:10:00,26.4,13.6,30.16,North,0,3.0,14.0,58,0.00,,,0.00,0.0,meteohub,2013-02-18 03:10:00,
2013-02-17 22:15:00,26.2,13.5,30.16,NNW,343,4.0,14.0,58,0.00,,,0.00,0.0,meteohub,2013-02-18 03:15:00,
2013-02-17 22:20:00,26.2,13.5,30.16,NNW,346,4.0,12.0,58,0.00,,,0.00,0.0,meteohub,2013-02-18 03:20:00,
2013-02-17 22:25:00,26.2,13.8,30.17,NNW,343,1.0,12.0,59,0.00,,,0.00,0.0,meteohub,2013-02-18 03:25:00,
2013-02-17 22:30:00,26.2,13.8,30.17,North,355,5.0,12.0,59,0.00,,,0.00,0.0,meteohub,2013-02-18 03:30:00,
2013-02-17 22:36:00,26.1,13.6,30.16,North,5,7.0,14.0,59,0.00,,,0.00,0.0,meteohub,2013-02-18 03:36:00,
2013-02-17 22:41:00,26.1,14.0,30.16,West,265,4.0,14.0,60,0.00,,,0.00,0.0,meteohub,2013-02-18 03:41:00,
2013-02-17 22:46:00,26.1,14.0,30.17,North,355,9.0,14.0,60,0.00,,,0.00,0.0,meteohub,2013-02-18 03:46:00,
2013-02-17 22:51:00,26.1,14.0,30.17,NNW,345,3.0,11.0,60,0.00,,,0.00,0.0,meteohub,2013-02-18 03:51:00,
2013-02-17 22:56:00,26.1,14.0,30.17,NNE,30,5.0,11.0,60,0.00,,,0.00,0.0,meteohub,2013-02-18 03:56:00,
2013-02-17 23:01:00,26.1,14.0,30.17,North,5,1.0,11.0,60,0.00,,,0.00,0.0,meteohub,2013-02-18 04:01:00,
2013-02-17 23:06:00,26.1,14.0,30.17,NNW,343,5.0,11.0,60,0.00,,,0.00,0.0,meteohub,2013-02-18 04:06:00,
2013-02-17 23:11:00,26.1,14.5,30.17,NNW,344,8.0,11.0,61,0.00,,,0.00,0.0,meteohub,2013-02-18 04:11:00,
2013-02-17 23:16:00,26.1,14.0,30.18,North,355,5.0,10.0,60,0.00,,,0.00,0.0,meteohub,2013-02-18 04:16:00,
2013-02-17 23:21:00,26.1,14.0,30.18,NNE,26,5.0,10.0,60,0.00,,,0.00,0.0,meteohub,2013-02-18 04:21:00,
2013-02-17 23:26:00,26.1,14.5,30.18,NW,326,4.0,10.0,61,0.00,,,0.00,0.0,meteohub,2013-02-18 04:26:00,
2013-02-17 23:31:00,26.1,14.5,30.18,WNW,298,4.0,12.0,61,0.00,,,0.00,0.0,meteohub,2013-02-18 04:31:00,
2013-02-17 23:36:00,26.1,14.0,30.18,NNW,344,3.0,12.0,60,0.00,,,0.00,0.0,meteohub,2013-02-18 04:36:00,
2013-02-17 23:41:00,26.1,14.0,30.18,NW,324,3.0,16.0,60,0.00,,,0.00,0.0,meteohub,2013-02-18 04:41:00,
2013-02-17 23:47:00,26.1,14.0,30.18,North,9,2.0,16.0,60,0.00,,,0.00,0.0,meteohub,2013-02-18 04:47:00,
2013-02-17 23:52:00,26.1,14.0,30.18,NNW,335,7.0,16.0,60,0.00,,,0.00,0.0,meteohub,2013-02-18 04:52:00,
2013-02-17 23:57:00,26.1,14.0,30.19,NNW,341,8.0,15.0,60,0.00,,,0.00,0.0,meteohub,2013-02-18 04:57:00,